This is the latest recevied weather packets stored in our database for station/object N2PPN. If no packets are shown the sender has not sent any weather packets the latest 10 day(s).
| Time | Temp. | Humidity | Pressure | Rain* | Wind** | Luminosity | Snow |
|---|---|---|---|---|---|---|---|
| 1778010927 | 18.89° C | 70% | 1012.4 hPa | 0 mm | - | 506 W/m² | - |
| 1778010625 | 18.89° C | 70% | 1012.3 hPa | 0 mm | - | 518 W/m² | - |
| 1778010321 | 18.89° C | 70% | 1012.4 hPa | 0 mm | - | 523 W/m² | - |
| 1778010017 | 19.44° C | 69% | 1012.3 hPa | 0 mm | - | 530 W/m² | - |
| 1778009714 | 20° C | 68% | 1012.4 hPa | 0 mm | - | 538 W/m² | - |
| 1778009411 | 20° C | 68% | 1012.5 hPa | 0 mm | - | 567 W/m² | - |
| 1778009110 | 20° C | 68% | 1012.6 hPa | 0 mm | - | 577 W/m² | - |
| 1778008807 | 19.44° C | 69% | 1012.8 hPa | 0 mm | - | 583 W/m² | - |
| 1778008505 | 19.44° C | 69% | 1012.8 hPa | 0 mm | - | 588 W/m² | - |
| 1778008202 | 19.44° C | 69% | 1012.9 hPa | 0 mm | - | 596 W/m² | - |
| 1778007896 | 20° C | 68% | 1013 hPa | 0 mm | - | 598 W/m² | - |
| 1778007593 | 20° C | 69% | 1013 hPa | 0 mm | - | 622 W/m² | - |
| 1778007290 | 19.44° C | 70% | 1013.6 hPa | 0 mm | - | 629 W/m² | - |
| 1778006986 | 19.44° C | 69% | 1013.5 hPa | 0 mm | - | 639 W/m² | - |
| 1778006683 | 18.89° C | 72% | 1013.3 hPa | 0 mm | - | 645 W/m² | - |
| 1778006380 | 18.89° C | 71% | 1013.6 hPa | 0 mm | - | 654 W/m² | - |
| 1778006077 | 18.89° C | 71% | 1013.6 hPa | 0 mm | - | 659 W/m² | - |
| 1778005773 | 18.33° C | 73% | 1013.4 hPa | 0 mm | - | 667 W/m² | - |
| 1778005470 | 18.33° C | 74% | 1013.6 hPa | 0 mm | - | 673 W/m² | - |
| 1778005166 | 18.89° C | 73% | 1013.6 hPa | 0 mm | - | 681 W/m² | - |
| 1778004864 | 18.33° C | 74% | 1013.8 hPa | 0 mm | - | 687 W/m² | - |
| 1778004560 | 18.33° C | 73% | 1013.6 hPa | 0 mm | - | 691 W/m² | - |
| 1778004257 | 18.33° C | 73% | 1013.7 hPa | 0 mm | - | 698 W/m² | - |
| 1778003954 | 18.89° C | 73% | 1013.6 hPa | 0 mm | - | 701 W/m² | - |
| 1778003651 | 18.89° C | 73% | 1013.8 hPa | 0 mm | - | 707 W/m² | - |
* Rain latest hour (hover to see other rain measurements)
** Current wind speed in m/s (hover to see current wind gust speed)